Change the Weather History Date:

Wednesday, May 29, 2013

  Actual Average Record
Temperature  
Mean Temperature 78 °F -  
Max Temperature 86 °F 83 °F 91 °F (1998)
Min Temperature 71 °F 69 °F 66 °F (2003)
Cooling Degree Days 14    
Growing Degree Days 28 (Base 50)    
Moisture  
Dew Point 64 °F    
Average Humidity 66    
Maximum Humidity 100    
Minimum Humidity 18    
Precipitation  
Precipitation 0.00 in - - ()
Sea Level Pressure  
Sea Level Pressure 30.08 in    
Wind  
Wind Speed 10 mph (ESE)    
Max Wind Speed 18 mph    
Max Gust Speed 25 mph    
Visibility 10 miles    
Events      
Averages and records for this station are not official NWS values.
T = Trace of Precipitation, MM = Missing Value Source: NWS Daily Summary

Daily Weather History Graph

Daily Weather History Graph

Search for Another Location

Airport or City:

Trip Planner

Search our weather history database for the weather conditions in past years. The results will help you decide how hot, cold, wet, or windy it might be!

Date:

Astronomy

May. 29, 2013 Rise Set
Actual Time 5:42 AM CDT 7:37 PM CDT
Civil Twilight 5:15 AM CDT 8:04 PM CDT
Nautical Twilight 4:42 AM CDT 8:37 PM CDT
Astronomical Twilight 4:08 AM CDT 9:11 PM CDT
Moon 11:53 PM CDT (5/29) 10:29 AM CDT (5/29)
Length of Visible Light 14h 49m
Length of Day
13h 55m
Waning Gibbous, 73% of the Moon is Illuminated
May 29
Waning Gibbous
May 31
Last Quarter
Jun 8
New
Jun 16
First Quarter
Jun 23
Full

Hourly Weather History & Observations

Time (CDT) Temp. Heat Index Dew Point Humidity Pressure Visibility Wind Dir Wind Speed Gust Speed Precip Events Conditions
12:58 AM 72.7 °F - 69.1 °F 88% 30.09 in 10.0 mi ENE 5.8 mph - N/A   Partly Cloudy
1:58 AM 73.2 °F - 70.3 °F 91% 30.07 in 10.0 mi East 8.1 mph - N/A   Clear
2:58 AM 73.4 °F - 72.3 °F 96% 30.05 in 10.0 mi ESE 8.1 mph - N/A   Clear
3:58 AM 72.9 °F - 72.7 °F 99% 30.05 in 10.0 mi ESE 9.2 mph - N/A   Clear
4:58 AM 73.2 °F - 73.2 °F 100% 30.07 in 10.0 mi East 6.9 mph - N/A   Clear
5:58 AM 71.2 °F - 71.2 °F 100% 30.09 in 10.0 mi East 4.6 mph - N/A   Partly Cloudy
6:58 AM 72.7 °F - 72.7 °F 100% 30.10 in 10.0 mi East 8.1 mph - N/A   Clear
7:58 AM 76.1 °F - 75.2 °F 97% 30.11 in 10.0 mi East 9.2 mph - N/A   Partly Cloudy
8:58 AM 79.7 °F - 76.3 °F 89% 30.11 in 10.0 mi ESE 12.7 mph 19.6 mph N/A   Scattered Clouds
9:58 AM 82.6 °F 90.5 °F 76.3 °F 81% 30.11 in 10.0 mi East 13.8 mph 21.9 mph N/A   Scattered Clouds
10:58 AM 84.2 °F 88.4 °F 69.8 °F 62% 30.12 in 10.0 mi ESE 15.0 mph - N/A   Partly Cloudy
11:58 AM 83.7 °F 92.4 °F 76.3 °F 78% 30.11 in 10.0 mi ESE 15.0 mph 23.0 mph N/A   Partly Cloudy
12:28 PM 86.0 °F 90.4 °F 69.8 °F 58% 30.09 in 10.0 mi ESE 13.8 mph - N/A   Mostly Cloudy
12:58 PM 83.8 °F 88.1 °F 69.8 °F 63% 30.09 in 10.0 mi ESE 11.5 mph 20.7 mph N/A   Mostly Cloudy
1:43 PM 86.0 °F 96.9 °F 77.0 °F 74% 30.08 in 10.0 mi ESE 16.1 mph 25.3 mph N/A   Scattered Clouds
1:58 PM 84.6 °F 87.6 °F 68.0 °F 57% 30.09 in 10.0 mi ESE 18.4 mph 23.0 mph N/A   Scattered Clouds
2:58 PM 84.2 °F 86.6 °F 66.2 °F 55% 30.08 in 10.0 mi ESE 15.0 mph - N/A   Scattered Clouds
3:48 PM 86.0 °F 89.4 °F 68.0 °F 55% 30.06 in 10.0 mi SSE 13.8 mph - N/A   Scattered Clouds
3:58 PM 86.0 °F 88.2 °F 66.2 °F 51% 30.06 in 10.0 mi South 12.7 mph 19.6 mph N/A   Scattered Clouds
4:58 PM 84.2 °F 88.4 °F 69.8 °F 62% 30.06 in 10.0 mi SSE 15.0 mph - N/A   Scattered Clouds
5:58 PM 82.4 °F 86.3 °F 69.8 °F 66% 30.05 in 10.0 mi SSE 13.8 mph - N/A   Clear
6:58 PM 82.4 °F 85.4 °F 68.0 °F 62% 30.05 in 10.0 mi SE 10.4 mph - N/A   Clear
7:58 PM 78.8 °F - 32.0 °F 18% 30.05 in 10.0 mi ESE 8.1 mph - N/A   Clear
8:58 PM 77.0 °F - 32.0 °F 19% 30.07 in 10.0 mi ESE 8.1 mph - N/A   Clear
9:58 PM 77.0 °F - 32.0 °F 19% 30.08 in 10.0 mi East 5.8 mph - N/A   Clear
10:58 PM 75.2 °F - 32.0 °F 21% 30.08 in 10.0 mi East 4.6 mph - N/A   Clear
11:58 PM 73.4 °F - 32.0 °F 22% 30.09 in 10.0 mi East 4.6 mph - N/A   Clear